McConnell AFB, KS

8:13 PM CST on February 23, 2017 (GMT -0600)
McConnell Air Force Base

Weather History for KIAB - August, 2014

Change the Weather History Date:

Saturday, August 30, 2014

  Actual Average Record
Temperature  
Mean Temperature 80 °F -  
Max Temperature 93 °F 88 °F 101 °F (2013)
Min Temperature 66 °F 66 °F 59 °F (2006)
Cooling Degree Days 14    
Growing Degree Days 30 (Base 50)    
Moisture  
Dew Point 64 °F    
Average Humidity 71    
Maximum Humidity 100    
Minimum Humidity 26    
Precipitation  
Precipitation 0.00 in - - ()
Sea Level Pressure  
Sea Level Pressure 29.90 in    
Wind  
Wind Speed 4 mph (SSE)    
Max Wind Speed 9 mph    
Max Gust Speed -    
Visibility 10 miles    
Events      
Averages and records for this station are not official NWS values.
T = Trace of Precipitation, MM = Missing Value Source: NWS Daily Summary

Daily Weather History Graph

Daily Weather History Graph

Search for Another Location

Airport or City:

Trip Planner

Search our weather history database for the weather conditions in past years. The results will help you decide how hot, cold, wet, or windy it might be!

Date:

Astronomy

Aug. 30, 2014 Rise Set
Actual Time 6:57 AM CDT 8:01 PM CDT
Civil Twilight 6:30 AM CDT 8:27 PM CDT
Nautical Twilight 5:58 AM CDT 8:59 PM CDT
Astronomical Twilight 5:25 AM CDT 9:32 PM CDT
Moon 11:40 AM CDT (8/30) 10:42 PM CDT (8/30)
Length of Visible Light 13h 57m
Length of Day
13h 03m
Waxing Crescent, 23% of the Moon is Illuminated
Aug 30
Waxing Crescent
Sep 2
First Quarter
Sep 8
Full
Sep 15
Last Quarter
Sep 24
New

Hourly Weather History & Observations

Time (CDT) Temp. Heat Index Dew Point Humidity Pressure Visibility Wind Dir Wind Speed Gust Speed Precip Events Conditions
12:58 AM 69.6 °F - 69.6 °F 100% 29.90 in 10.0 mi South 4.6 mph - N/A   Clear
1:58 AM 69.4 °F - 69.4 °F 100% 29.89 in 10.0 mi South 4.6 mph - N/A   Clear
2:58 AM 68.5 °F - 68.5 °F 100% 29.88 in 10.0 mi South 5.8 mph - N/A   Clear
3:58 AM 69.3 °F - 69.3 °F 100% 29.90 in 10.0 mi SSW 2.3 mph - N/A   Clear
4:58 AM 68.0 °F - 68.0 °F 100% 29.90 in 10.0 mi SSW 3.5 mph - N/A   Clear
5:38 AM 66.2 °F - 66.2 °F 100% 29.93 in 9.0 mi South 2.3 mph - N/A   Clear
5:43 AM 66.2 °F - 66.2 °F 100% 29.94 in 9.0 mi SSE 2.3 mph - N/A   Clear
5:58 AM 66.0 °F - 66.0 °F 100% 29.91 in 10.0 mi South 3.5 mph - N/A   Clear
6:03 AM 66.2 °F - 66.2 °F 100% 29.93 in 9.0 mi South 4.6 mph - N/A   Clear
6:43 AM 66.2 °F - 66.2 °F 100% 29.94 in 9.0 mi West 2.3 mph - N/A   Clear
6:58 AM 66.7 °F - 66.7 °F 100% 29.93 in 9.0 mi Calm Calm - N/A   Clear
7:58 AM 67.5 °F - 67.5 °F 100% 29.94 in 5.0 mi SE 2.3 mph - N/A   Clear
8:58 AM 72.1 °F - 72.1 °F 100% 29.95 in 10.0 mi NNW 2.3 mph - N/A   Clear
9:58 AM 78.1 °F - 68.5 °F 72% 29.96 in 10.0 mi NE 6.9 mph - N/A   Clear
10:58 AM 81.9 °F 83.9 °F 65.8 °F 58% 29.95 in 10.0 mi NNW 3.5 mph - N/A   Clear
11:58 AM 85.5 °F 86.1 °F 62.6 °F 46% 29.94 in 10.0 mi Variable 1.2 mph - N/A   Clear
12:58 PM 88.0 °F 87.1 °F 58.5 °F 37% 29.93 in 10.0 mi Variable 5.8 mph - N/A   Clear
1:58 PM 90.0 °F 88.3 °F 56.5 °F 32% 29.91 in 10.0 mi Variable 3.5 mph - N/A   Clear
2:58 PM 91.9 °F 90.3 °F 56.1 °F 30% 29.89 in 10.0 mi Variable 3.5 mph - N/A   Clear
3:58 PM 91.9 °F 89.8 °F 54.1 °F 28% 29.87 in 10.0 mi SSE 3.5 mph - N/A   Clear
4:58 PM 93.2 °F 90.8 °F 53.4 °F 26% 29.86 in 10.0 mi South 5.8 mph - N/A   Clear
5:58 PM 91.9 °F 90.3 °F 56.5 °F 30% 29.85 in 10.0 mi SE 5.8 mph - N/A   Clear
6:58 PM 89.1 °F 88.0 °F 57.7 °F 35% 29.86 in 10.0 mi South 8.1 mph - N/A   Clear
7:58 PM 83.1 °F 83.3 °F 60.3 °F 46% 29.86 in 10.0 mi SSE 5.8 mph - N/A   Clear
8:58 PM 80.4 °F 81.3 °F 60.6 °F 51% 29.86 in 10.0 mi SE 6.9 mph - N/A   Clear
9:58 PM 76.5 °F - 62.6 °F 62% 29.87 in 10.0 mi SE 6.9 mph - N/A   Clear
10:58 PM 76.5 °F - 62.2 °F 61% 29.87 in 10.0 mi SE 6.9 mph - N/A   Clear
11:58 PM 75.7 °F - 62.6 °F 64% 29.88 in 10.0 mi SE 9.2 mph - N/A   Clear